Regional Weather Roundup
Issued by NWS

Home | Current Version | Previous Version | Text Only | Print | Product List | Glossary On
Versions: 1 2 3 4 5 6 7 8 9 10 11 12 13 14 15 16 17 18 19 20 21 22 23 24 25 26 27 28 29 30 31 32 33 34 35 36 37 38 39 40 41 42 43 44 45 46 47 48 49 50
000
ASUS44 KLIX 261307
RWRLA
LOUISIANA WEATHER ROUNDUP
NATIONAL WEATHER SERVICE NEW ORLEANS LA
800 AM CDT SUN APR 26 2015

NOTE: "FAIR" INDICATES FEW OR NO CLOUDS BELOW 12,000 FEET WITH NO
      SIGNIFICANT WEATHER AND/OR OBSTRUCTIONS TO VISIBILITY.
      SKY/WX - SKY CONDITION AND SIGNIFICANT WEATHER.
      TMP - AIR TEMPERATURE.    DP   - DEWPOINT TEMPERATURE.
      RH  - RELATIVE HUMIDITY.  PRES - PRESSURE.
      HX  - HEAT INDEX.         WCI  - WIND CHILL INDEX.

*  THESE STATIONS ARE NOT NWS OR FAA STATIONS AND ARE NOT UNDER
   NWS QUALITY CONTROL.

LAZ040-048-061>063-065-066-069-261400-
SOUTHEAST LOUISIANA

CITY           SKY/WX    TMP DP  RH WIND       PRES   REMARKS
N.O. AUDUBON     N/A     73  73 100 MISG        N/A
N.O. INTL ARPT FOG       72  70  93 W5        29.77S VSB 1/8
N.O. LAKEFRONT CLOUDY    77  71  82 W5        29.77S HAZE
SLIDELL        FOG       69  69 100 CALM      29.77R VSB<1/4
BATON ROUGE    FOG       69  68  96 CALM      29.75S VSB 1/2
BOOTHVILLE     PTSUNNY   79  76  90 CALM      29.78R FOG
BELLE CHASSE   CLOUDY    72  69  90 CALM      29.77R
BOGALUSA*      FOG       67  64  91 CALM      29.79R VSB<1/4
GALLIANO*      CLOUDY    73  72  96 SW3       29.78R FOG
NEW ROADS*     FOG       69  68  98 NW3       29.77R VSB 1/2
GONZALES*      FOG      N/A N/A N/A CALM      29.75F VSB 1/2
HAMMOND*       CLOUDY    70  68  94 CALM      29.78S FOG
HOUMA*         FOG       72  72 100 CALM      29.76S VSB 1/2
PORT FOURCHON* PTSUNNY   77  75  94 CALM      29.81R FOG

$$

LAZ041-044-053-054-261400-
SOUTHWEST LOUISIANA

CITY           SKY/WX    TMP DP  RH WIND       PRES   REMARKS
LAKE CHARLES   CLOUDY    72  71  97 CALM      29.75S FOG
LAFAYETTE      FOG       70  70 100 CALM      29.76R VSB<1/4
PATTERSON      CLOUDY    72  70  94 CALM      29.76F VSB<1/4
SALT POINT       N/A     73  73 100 CALM      29.74S
NEW IBERIA     SUNNY     71  69  93 CALM      29.77R FOG
CHENAULT AIRPK CLOUDY    70  70 100 S3        29.76R FOG

$$

LAZ027-028-261400-
CENTRAL LOUISIANA

CITY           SKY/WX    TMP DP  RH WIND       PRES   REMARKS
FORT POLK      FOG       66  66 100 S3        29.74R VSB 1/8
ALEXANDRIA INT FOG       66  66 100 CALM      29.74R VSB 1/2
ALEXANDRIA     FOG       66  66 100 W3        29.75S VSB 1/4

$$

LAZ001-002-261400-
NORTHWEST LOUISIANA

CITY           SKY/WX    TMP DP  RH WIND       PRES   REMARKS
SHREVEPORT     PTSUNNY   69  67  93 SE3       29.72S FOG
BARKSDALE AFB  SUNNY     67  67 100 SE5       29.72S
DTN SHREVEPORT MOSUNNY   68  66  93 CALM      29.72F FOG

$$

LAZ014-016-261400-
NORTHEAST LOUISIANA

CITY           SKY/WX    TMP DP  RH WIND       PRES   REMARKS
MONROE         SUNNY     69  68  96 CALM      29.75S
TALLULAH       SUNNY     69  66  90 CALM      29.77R

$$



USA.gov is the U.S. government's official web portal to all federal, state and local government web resources and services.